Location: Unspecified
(52.4292°N, 19.3359°E)
Time: 23:06:06
(UTC+02:00)

A-11 Canister half - Pass Details

Date: 20 May 2024
Orbit: 1524 x 1683 km, 47.3° (Epoch: 19 June)

Event Time Altitude Azimuth Distance (km) Brightness Sun altitude
Rises 23:29:12 0° 239° (WSW) 4,700 11.4 -15.8°
Reaches altitude 10° 23:32:17 10° 235° (SW) 3,734 10.8 -15.9°
Maximum altitude 23:41:25 56° 161° (SSE) 1,835 9.0 -16.3°
Drops below altitude 10° 23:50:54 10° 87° (E) 3,861 11.0 -16.6°
Sets 23:54:08 0° 83° (E) 4,869 11.6 -16.7°
